KJ4AJP Weather Reports


Display with metric or nautical units.
time (UTC)temp
F
wind
direction
speed
MPH
gust
MPH
rain 1hr
in
rain 24hr
in
rain mn
in
humidity
%
barometer
mb
20260906161624 95 48 0.0 1.0 0.00 0.00 0.00 58 1013.6
20260906161123 94 53 0.0 1.0 0.00 0.00 0.00 58 1013.6
20260906160621 93 39 0.0 1.0 0.00 0.00 0.00 59 1013.6
20260906160120 93 36 1.0 1.0 0.00 0.00 0.00 59 1013.8
20260906155618 93 53 0.0 1.0 0.00 0.00 0.00 58 1013.6
20260906155114 94 49 1.0 1.0 0.00 0.00 0.00 57 1013.6
20260906154609 94 70 0.0 1.0 0.00 0.00 0.00 58 1013.5
20260906154109 93 55 1.0 2.0 0.00 0.00 0.00 59 1013.7
20260906153608 93 64 0.0 1.0 0.00 0.00 0.00 57 1013.5
20260906153103 93 75 1.0 2.0 0.00 0.00 0.00 59 1013.5
20260906152557 92 55 0.0 0.0 0.00 0.00 0.00 59 1013.6
20260906152057 91 49 0.0 0.0 0.00 0.00 0.00 61 1013.5
20260906151552 91 71 0.0 1.0 0.00 0.00 0.00 62 1013.6
20260906151048 91 44 1.0 1.0 0.00 0.00 0.00 61 1013.5
20260906150543 92 68 1.0 1.0 0.00 0.00 0.00 61 1013.4
20260906150038 92 75 0.0 1.0 0.00 0.00 0.00 60 1013.5
20260906145537 91 53 0.0 0.0 0.00 0.00 0.00 61 1013.5
20260906145032 91 53 0.0 0.0 0.00 0.00 0.00 63 1013.6
20260906144526 91 71 0.0 0.0 0.00 0.00 0.00 62 1013.5
20260906144021 89 66 0.0 0.0 0.00 0.00 0.00 65 1013.5
20260906143516 89 61 1.0 1.0 0.00 0.00 0.00 65 1013.5
20260906143014 89 51 1.0 1.0 0.00 0.00 0.00 65 1013.3
20260906142513 89 61 0.0 0.0 0.00 0.00 0.00 67 1013.5
20260906142009 88 54 0.0 1.0 0.00 0.00 0.00 67 1013.7
20260906141507 87 62 0.0 0.0 0.00 0.00 0.00 71 1013.8
20260906141002 87 41 1.0 1.0 0.00 0.00 0.00 69 1013.9
20260906140456 87 71 1.0 2.0 0.00 0.00 0.00 69 1013.6
20260906135954 87 59 0.0 0.0 0.00 0.00 0.00 70 1013.5
20260906135453 86 53 0.0 0.0 0.00 0.00 0.00 72 1013.7
20260906134949 85 69 0.0 0.0 0.00 0.00 0.00 73 1013.6
20260906134445 85 53 0.0 0.0 0.00 0.00 0.00 74 1013.7
20260906133944 84 51 1.0 1.0 0.00 0.00 0.00 75 1013.6
20260906133440 84 47 0.0 0.0 0.00 0.00 0.00 75 1013.8
20260906132936 84 47 0.0 0.0 0.00 0.00 0.00 76 1013.7
20260906132431 84 51 0.0 0.0 0.00 0.00 0.00 77 1013.7
20260906131926 83 50 0.0 0.0 0.00 0.00 0.00 79 1013.8
20260906131422 83 50 0.0 0.0 0.00 0.00 0.00 80 1013.7
20260906130917 82 48 0.0 0.0 0.00 0.00 0.00 82 1013.8
20260906130417 81 48 0.0 0.0 0.00 0.00 0.00 84 1013.8
20260906125916 80 48 0.0 0.0 0.00 0.00 0.00 84 1013.8
20260906125414 80 48 0.0 0.0 0.00 0.00 0.00 85 1013.7
20260906124908 79 48 0.0 0.0 0.00 0.00 0.00 86 1013.6
20260906124404 78 48 0.0 0.0 0.00 0.00 0.00 89 1013.6
20260906123904 77 48 0.0 0.0 0.00 0.00 0.00 91 1013.5
20260906123358 76 48 0.0 0.0 0.00 0.00 0.00 94 1013.4
20260906122858 76 48 0.0 0.0 0.00 0.00 0.00 94 1013.2
20260906122353 75 48 0.0 0.0 0.00 0.00 0.00 94 1013.1
20260906121850 75 48 0.0 0.0 0.00 0.00 0.00 94 1013.4
20260906121345 75 48 0.0 0.0 0.00 0.00 0.00 95 1013.3
20260906120842 75 48 0.0 0.0 0.00 0.00 0.00 95 1013.1
20260906120337 75 48 0.0 0.0 0.00 0.00 0.00 95 1012.8
20260906115833 74 48 0.0 0.0 0.00 0.00 0.00 95 1013.0
20260906115328 74 48 0.0 0.0 0.00 0.00 0.00 95 1012.9
20260906114827 74 48 0.0 0.0 0.00 0.00 0.00 96 1012.9
20260906114323 74 48 0.0 0.0 0.00 0.00 0.00 96 1012.8
20260906113818 74 48 0.0 0.0 0.00 0.00 0.00 96 1012.7
20260906113317 74 48 0.0 0.0 0.00 0.00 0.00 96 1012.6
20260906112813 74 48 0.0 0.0 0.00 0.00 0.00 96 1012.5
20260906112309 74 48 0.0 0.0 0.00 0.00 0.00 96 1012.4
20260906111808 74 48 0.0 0.0 0.00 0.00 0.00 96 1012.4
20260906111307 74 48 0.0 0.0 0.00 0.00 0.00 96 1012.3
20260906110803 74 48 0.0 0.0 0.00 0.00 0.00 96 1012.3
20260906110259 74 48 0.0 0.0 0.00 0.00 0.00 96 1012.2
20260906105758 74 48 0.0 0.0 0.00 0.00 0.00 96 1012.1
20260906105253 74 48 0.0 0.0 0.00 0.00 0.00 95 1012.2
20260906104749 74 48 0.0 0.0 0.00 0.00 0.00 95 1012.2
20260906104247 74 48 0.0 0.0 0.00 0.00 0.00 95 1012.2
20260906103746 74 48 0.0 0.0 0.00 0.00 0.00 95 1012.1
20260906103240 74 48 0.0 0.0 0.00 0.00 0.00 95 1012.0
20260906102736 74 48 0.0 0.0 0.00 0.00 0.00 95 1012.0
20260906102234 74 48 0.0 0.0 0.00 0.00 0.00 95 1011.8
20260906101730 75 48 0.0 0.0 0.00 0.00 0.00 95 1011.7
20260906101225 75 48 0.0 0.0 0.00 0.00 0.00 94 1011.6
20260906100720 75 48 0.0 0.0 0.00 0.00 0.00 94 1011.5
20260906100215 75 48 0.0 0.0 0.00 0.00 0.00 94 1011.5
20260906095714 75 48 0.0 0.0 0.00 0.00 0.00 94 1011.6
20260906095210 75 48 0.0 0.0 0.00 0.00 0.00 93 1011.3
20260906094708 75 48 0.0 0.0 0.00 0.00 0.00 94 1011.4
20260906094204 75 48 0.0 0.0 0.00 0.00 0.00 94 1011.8
20260906093700 75 48 0.0 0.0 0.00 0.00 0.00 93 1011.5
20260906093155 76 48 0.0 0.0 0.00 0.00 0.00 93 1011.9
20260906092651 76 48 0.0 0.0 0.00 0.00 0.00 93 1011.5
20260906092145 76 48 0.0 0.0 0.00 0.00 0.00 93 1011.7
20260906091642 76 47 0.0 0.0 0.00 0.00 0.00 93 1011.7
20260906091138 76 49 0.0 0.0 0.00 0.00 0.00 93 1011.6
20260906090633 76 49 0.0 0.0 0.00 0.00 0.00 93 1011.7
20260906090133 76 49 0.0 0.0 0.00 0.00 0.00 93 1011.7
20260906085631 76 48 0.0 0.0 0.00 0.00 0.00 93 1011.7
20260906085126 76 48 0.0 0.0 0.00 0.00 0.00 94 1011.7
20260906084626 76 48 0.0 0.0 0.00 0.00 0.00 93 1011.7
20260906084125 76 48 0.0 0.0 0.00 0.00 0.00 93 1011.6
20260906083621 76 48 0.0 0.0 0.00 0.00 0.00 93 1011.5
20260906083121 76 48 0.0 0.0 0.00 0.00 0.00 93 1011.5
20260906082616 77 48 0.0 0.0 0.00 0.00 0.00 93 1011.4
20260906082112 77 48 0.0 0.0 0.00 0.00 0.00 93 1011.6
20260906081608 77 48 0.0 0.0 0.00 0.00 0.00 93 1011.2
20260906081102 77 48 0.0 0.0 0.00 0.00 0.00 92 1011.5
20260906080559 77 48 0.0 0.0 0.00 0.00 0.00 92 1011.5
20260906080055 77 48 0.0 0.0 0.00 0.00 0.00 93 1011.5
20260906075555 77 48 0.0 0.0 0.00 0.00 0.00 93 1011.6
20260906075050 77 48 0.0 0.0 0.00 0.00 0.00 92 1011.5
20260906074544 77 48 0.0 0.0 0.00 0.00 0.00 92 1011.4
20260906074043 77 48 0.0 0.0 0.00 0.00 0.00 92 1011.5
20260906073538 77 48 0.0 0.0 0.00 0.00 0.00 92 1011.6
20260906073034 77 48 0.0 0.0 0.00 0.00 0.00 92 1011.4
20260906072529 77 48 0.0 0.0 0.00 0.00 0.00 91 1011.4
20260906072025 77 49 0.0 0.0 0.00 0.00 0.00 91 1011.3
20260906071521 77 49 0.0 0.0 0.00 0.00 0.00 92 1011.2
20260906071016 77 49 0.0 0.0 0.00 0.00 0.00 92 1011.3
20260906070513 77 49 0.0 0.0 0.00 0.00 0.00 92 1011.2
20260906070008 77 49 0.0 0.0 0.00 0.00 0.00 92 1011.1
20260906065507 77 49 0.0 0.0 0.00 0.00 0.00 92 1011.3
20260906065003 77 49 0.0 0.0 0.00 0.00 0.00 92 1011.2
20260906064459 77 49 0.0 0.0 0.00 0.00 0.00 92 1011.2
20260906063953 77 49 0.0 0.0 0.00 0.00 0.00 92 1011.3
20260906063449 77 49 0.0 0.0 0.00 0.00 0.00 92 1011.6
20260906062949 77 49 0.0 0.0 0.00 0.00 0.00 92 1011.7
20260906062444 77 49 0.0 0.0 0.00 0.00 0.00 92 1011.8
20260906061939 77 49 0.0 0.0 0.00 0.00 0.00 91 1011.9
20260906061435 77 49 0.0 0.0 0.00 0.00 0.00 91 1011.7
20260906060929 77 49 0.0 0.0 0.00 0.00 0.00 90 1011.7
20260906060427 77 49 0.0 0.0 0.00 0.00 0.00 90 1011.7
20260906055923 77 49 0.0 0.0 0.00 0.00 0.00 90 1011.9
20260906055419 77 49 0.0 0.0 0.00 0.00 0.00 90 1011.9
20260906054914 78 49 0.0 0.0 0.00 0.00 0.00 90 1011.9
20260906054408 78 49 0.0 0.0 0.00 0.00 0.00 90 1012.0
20260906053904 78 49 0.0 0.0 0.00 0.00 0.00 90 1012.1
20260906053400 78 49 0.0 0.0 0.00 0.00 0.00 90 1012.0
20260906052856 78 49 0.0 0.0 0.00 0.00 0.00 90 1011.9
20260906052352 78 49 0.0 0.0 0.00 0.00 0.00 89 1011.9
20260906051849 78 49 0.0 0.0 0.00 0.00 0.00 89 1011.9
20260906051348 78 49 0.0 0.0 0.00 0.00 0.00 88 1012.0
20260906050844 78 49 0.0 0.0 0.00 0.00 0.00 88 1011.9
20260906050339 79 49 0.0 0.0 0.00 0.00 0.00 87 1011.9
20260906045838 79 49 0.0 0.0 0.00 0.00 0.00 86 1011.9
20260906045332 79 49 0.0 0.0 0.00 0.00 0.00 86 1011.9
20260906044829 79 48 0.0 0.0 0.00 0.00 0.00 86 1011.9
20260906044328 79 49 0.0 0.0 0.00 0.00 0.00 86 1011.9
20260906043826 79 50 0.0 0.0 0.00 0.00 0.00 86 1012.1
20260906043320 79 50 0.0 0.0 0.00 0.00 0.00 86 1011.9
20260906042820 79 50 0.0 0.0 0.00 0.00 0.00 86 1012.0
20260906042319 79 50 0.0 0.0 0.00 0.00 0.00 86 1011.7
20260906041815 79 50 0.0 0.0 0.00 0.00 0.00 85 1011.7
20260906041310 79 49 1.0 1.0 0.00 0.00 0.00 85 1011.9
20260906040805 79 55 0.0 0.0 0.00 0.00 0.00 84 1012.0
20260906040300 79 55 0.0 0.0 0.00 0.00 0.00 84 1011.7
20260906035756 79 55 0.0 0.0 0.00 0.00 0.00 84 1011.8
20260906035252 80 55 0.0 0.0 0.00 0.00 0.00 83 1011.8
20260906034751 80 55 0.0 0.0 0.00 0.00 0.00 83 1011.6
20260906034246 80 55 0.0 0.0 0.00 0.00 0.00 82 1011.8
20260906033742 80 55 0.0 0.0 0.00 0.00 0.00 82 1011.9
20260906033241 80 54 0.0 0.0 0.00 0.00 0.00 82 1011.7
20260906032738 80 55 0.0 0.0 0.00 0.00 0.00 82 1011.7
20260906032238 80 55 0.0 0.0 0.00 0.00 0.00 81 1011.7
20260906031733 80 55 0.0 0.0 0.00 0.00 0.00 81 1011.8
20260906031229 81 55 0.0 0.0 0.00 0.00 0.00 81 1011.5
20260906030728 81 55 0.0 0.0 0.00 0.00 0.00 81 1011.5
20260906030224 81 55 0.0 0.0 0.00 0.00 0.00 79 1011.5
20260906025723 81 55 0.0 0.0 0.00 0.00 0.00 79 1011.4
20260906025218 81 55 0.0 0.0 0.00 0.00 0.00 79 1011.1
20260906024717 81 55 0.0 0.0 0.00 0.00 0.00 79 1011.7
20260906024216 81 55 0.0 0.0 0.00 0.00 0.00 78 1011.4
20260906023712 82 55 0.0 0.0 0.00 0.00 0.00 77 1011.3
20260906023213 82 55 0.0 0.0 0.00 0.00 0.00 77 1011.4
20260906022708 82 55 0.0 0.0 0.00 0.00 0.00 77 1011.4
20260906022203 82 55 0.0 0.0 0.00 0.00 0.00 75 1011.4
20260906021659 83 55 0.0 0.0 0.00 0.00 0.00 75 1011.1
20260906021158 83 55 0.0 0.0 0.00 0.00 0.00 74 1011.1
20260906020653 82 55 0.0 0.0 0.00 0.00 0.00 75 1011.2
20260906020148 83 55 0.0 0.0 0.00 0.00 0.00 76 1011.0
20260906015648 83 55 0.0 0.0 0.00 0.00 0.00 75 1011.1
20260906015147 83 55 0.0 0.0 0.00 0.00 0.00 74 1010.9
20260906014647 83 55 0.0 0.0 0.00 0.00 0.00 74 1011.0
20260906014143 83 55 0.0 0.0 0.00 0.00 0.00 73 1010.8
20260906013638 84 55 0.0 0.0 0.00 0.00 0.00 72 1010.8
20260906013134 84 55 0.0 0.0 0.00 0.00 0.00 71 1010.7
20260906012633 84 55 0.0 0.0 0.00 0.00 0.00 71 1010.7
20260906012128 85 55 0.0 0.0 0.00 0.00 0.00 71 1010.6
20260906011624 85 55 0.0 0.0 0.00 0.00 0.00 70 1010.7
20260906011124 86 55 0.0 0.0 0.00 0.00 0.00 69 1010.6
20260906010620 86 55 0.0 0.0 0.00 0.00 0.00 67 1010.8
20260906010116 86 55 0.0 0.0 0.00 0.00 0.00 65 1010.6
20260906005615 86 55 0.0 0.0 0.00 0.00 0.00 64 1010.7
20260906005115 87 55 0.0 0.0 0.00 0.00 0.00 63 1010.5
20260906004614 87 55 0.0 0.0 0.00 0.00 0.00 62 1010.3
20260906004109 87 55 0.0 0.0 0.00 0.00 0.00 62 1010.3
20260906003604 88 55 0.0 0.0 0.00 0.00 0.00 61 1010.3
20260906003101 88 55 0.0 0.0 0.00 0.00 0.00 61 1010.4
20260906002601 89 55 0.0 0.0 0.00 0.00 0.00 61 1010.5
20260906002055 89 55 0.0 0.0 0.00 0.00 0.00 61 1010.5
20260906001550 89 55 0.0 0.0 0.00 0.00 0.00 60 1010.6
20260906001045 90 55 0.0 0.0 0.00 0.00 0.00 61 1010.6
20260906000541 90 55 0.0 0.0 0.00 0.00 0.00 60 1010.8
20260906000036 91 55 0.0 0.0 0.00 0.00 0.00 59 1010.7
20260905235536 91 55 0.0 0.0 0.00 0.00 0.00 59 1010.6
20260905235031 92 55 0.0 0.0 0.00 0.00 0.00 58 1010.7
20260905234526 92 55 0.0 0.0 0.00 0.00 0.00 55 1010.8
20260905234026 92 55 0.0 0.0 0.00 0.00 0.00 55 1010.9
20260905233521 93 55 0.0 0.0 0.00 0.00 0.00 53 1010.8
20260905233021 93 55 0.0 0.0 0.00 0.00 0.00 53 1010.8
20260905232516 94 55 0.0 0.0 0.00 0.00 0.00 52 1010.7
20260905232012 94 55 0.0 0.0 0.00 0.00 0.00 50 1010.6
20260905231507 95 55 0.0 0.0 0.00 0.00 0.00 50 1010.6
20260905231004 96 55 0.0 0.0 0.00 0.00 0.00 49 1010.5
20260905230502 97 55 0.0 0.0 0.00 0.00 0.00 49 1010.7
20260905230000 98 55 0.0 0.0 0.00 0.00 0.00 46 1010.4
20260905225456 99 55 0.0 0.0 0.00 0.00 0.00 45 1010.6
20260905224951 99 55 0.0 0.0 0.00 0.00 0.00 43 1010.5
20260905224446 100 55 0.0 0.0 0.00 0.00 0.00 43 1010.6
20260905223945 100 55 0.0 0.0 0.00 0.00 0.00 43 1010.5
20260905223443 101 56 0.0 0.0 0.00 0.00 0.00 45 1010.7
20260905222938 102 52 0.0 0.0 0.00 0.00 0.00 43 1010.6
20260905222438 101 52 0.0 0.0 0.00 0.00 0.00 40 1010.7
20260905221933 101 52 0.0 0.0 0.00 0.00 0.00 40 1010.7
20260905221430 101 64 0.0 0.0 0.00 0.00 0.00 38 1010.7
20260905220926 102 59 0.0 0.0 0.00 0.00 0.00 44 1010.7
20260905220422 102 55 0.0 0.0 0.00 0.00 0.00 42 1010.8
20260905215921 102 79 1.0 1.0 0.00 0.00 0.00 42 1010.7
20260905215416 102 55 0.0 0.0 0.00 0.00 0.00 41 1010.6
20260905214913 103 48 1.0 1.0 0.00 0.00 0.00 41 1010.8
20260905214408 103 56 0.0 0.0 0.00 0.00 0.00 41 1010.7
20260905213908 103 49 0.0 0.0 0.00 0.00 0.00 39 1010.8
20260905213404 102 47 0.0 0.0 0.00 0.00 0.00 39 1010.7
20260905212859 102 56 0.0 0.0 0.00 0.00 0.00 43 1010.8
20260905212354 102 58 0.0 1.0 0.00 0.00 0.00 41 1010.7
20260905211853 104 59 1.0 1.0 0.00 0.00 0.00 42 1010.9
20260905211349 103 46 0.0 0.0 0.00 0.00 0.00 37 1010.9
20260905210846 102 60 0.0 0.0 0.00 0.00 0.00 41 1011.0
20260905210345 102 43 1.0 1.0 0.00 0.00 0.00 38 1010.9
20260905205844 102 46 0.0 0.0 0.00 0.00 0.00 39 1010.9
20260905205339 102 66 1.0 1.0 0.00 0.00 0.00 44 1010.9
20260905204838 103 58 0.0 0.0 0.00 0.00 0.00 39 1011.0
20260905204335 102 69 0.0 1.0 0.00 0.00 0.00 39 1010.9
20260905203833 101 73 1.0 1.0 0.00 0.00 0.00 40 1011.1
20260905203329 100 46 0.0 0.0 0.00 0.00 0.00 44 1011.1
20260905202824 99 62 0.0 0.0 0.00 0.00 0.00 43 1011.4
20260905202314 97 51 0.0 1.0 0.00 0.00 0.00 49 1011.4
20260905201810 97 61 0.0 0.0 0.00 0.00 0.00 47 1011.6
20260905201305 98 61 0.0 0.0 0.00 0.00 0.00 47 1011.5
20260905200804 99 60 0.0 0.0 0.00 0.00 0.00 46 1011.7
20260905200301 100 71 1.0 1.0 0.00 0.00 0.00 46 1011.7
20260905195758 101 37 1.0 1.0 0.00 0.00 0.00 41 1011.7
20260905195254 102 47 1.0 1.0 0.00 0.00 0.00 42 1011.8
20260905194749 102 54 0.0 0.0 0.00 0.00 0.00 41 1011.9
20260905194249 101 64 0.0 0.0 0.00 0.00 0.00 42 1012.1
20260905193748 101 245 2.0 2.0 0.00 0.00 0.00 39 1012.1
20260905193243 101 314 2.0 2.0 0.00 0.00 0.00 41 1012.3
20260905192738 101 42 1.0 1.0 0.00 0.00 0.00 43 1012.3
20260905192235 101 60 0.0 0.0 0.00 0.00 0.00 42 1012.3
20260905191734 100 56 0.0 0.0 0.00 0.00 0.00 44 1012.4
20260905191232 98 65 0.0 0.0 0.00 0.00 0.00 44 1012.4
20260905190731 98 58 0.0 0.0 0.00 0.00 0.00 51 1012.6
20260905190230 100 59 1.0 1.0 0.00 0.00 0.00 45 1012.8
20260905185730 102 61 0.0 0.0 0.00 0.00 0.00 40 1012.9
20260905185224 102 51 1.0 1.0 0.00 0.00 0.00 40 1013.0
20260905184719 102 104 1.0 1.0 0.00 0.00 0.00 40 1012.9
20260905184218 101 43 0.0 0.0 0.00 0.00 0.00 40 1012.9
20260905183718 101 20 2.0 2.0 0.00 0.00 0.00 41 1012.9
20260905183213 101 58 1.0 2.0 0.00 0.00 0.00 45 1013.1
20260905182713 102 65 1.0 2.0 0.00 0.00 0.00 44 1013.1
20260905182212 101 62 0.0 1.0 0.00 0.00 0.00 40 1013.0
20260905181708 100 55 2.0 3.0 0.00 0.00 0.00 44 1013.0
20260905181207 100 59 0.0 1.0 0.00 0.00 0.00 42 1013.1
20260905180701 99 56 0.0 1.0 0.00 0.00 0.00 44 1013.2
20260905180157 98 102 1.0 1.0 0.00 0.00 0.00 47 1013.2
20260905175655 100 67 0.0 1.0 0.00 0.00 0.00 46 1013.2
20260905175151 100 27 2.0 2.0 0.00 0.00 0.00 42 1013.3
20260905174647 100 45 1.0 2.0 0.00 0.00 0.00 41 1013.4
20260905174142 100 77 1.0 1.0 0.00 0.00 0.00 41 1013.4
20260905173638 99 70 0.0 1.0 0.00 0.00 0.00 45 1013.3
20260905173134 99 319 2.0 2.0 0.00 0.00 0.00 44 1013.3
20260905172632 100 281 6.0 7.0 0.00 0.00 0.00 42 1013.5
20260905172127 99 51 0.0 0.0 0.00 0.00 0.00 46 1013.5
20260905171624 100 247 3.0 4.0 0.00 0.00 0.00 44 1013.5
20260905171119 99 74 1.0 1.0 0.00 0.00 0.00 45 1013.8
20260905170616 99 44 1.0 1.0 0.00 0.00 0.00 44 1013.7
20260905170112 99 51 0.0 0.0 0.00 0.00 0.00 47 1013.8
20260905165611 100 20 1.0 1.0 0.00 0.00 0.00 45 1013.8
20260905165107 99 69 1.0 1.0 0.00 0.00 0.00 49 1013.8
20260905164602 99 66 1.0 1.0 0.00 0.00 0.00 47 1013.9
20260905164101 100 48 0.0 1.0 0.00 0.00 0.00 46 1014.2
20260905163558 99 68 0.0 0.0 0.00 0.00 0.00 49 1014.1
20260905163054 98 61 0.0 0.0 0.00 0.00 0.00 47 1014.1
20260905162550 98 351 2.0 3.0 0.00 0.00 0.00 47 1014.1
20260905162049 98 57 0.0 1.0 0.00 0.00 0.00 49 1014.2